Location: Winnipeg
(49.8830°N, 97.1670°W)
Time: 04:19:51
(UTC-05:00)

Envisat - Pass Details

Date: 05 March 2024
Orbit: 762 x 764 km, 98.3° (Epoch: 21 April)

Event Time Altitude Azimuth Distance (km) Brightness Sun altitude
Rises 05:08:51 0° 7° (N) 3,243 6.5 -19.0°
Reaches altitude 10° 05:11:23 10° 357° (N) 2,312 5.6 -18.6°
Maximum altitude 05:15:46 30° 297° (WNW) 1,347 3.9 -17.9°
Enters shadow 05:16:30 29° 282° (WNW) 1,382 3.8 -17.8°
